Starlink 3847

operational
NORAD ID: 52333 Int'l Des: 2022-045 Owner: SPXS Country: US Constellation: starlink
LEOCIRCULAR

About Starlink 3847

Description loading...

Live Position

Loading 3D Globe...

Upcoming Passes

Altitude History

Altitude vs Time

uPlot chart will show altitude changes over time

Two-Line Element Set

1 52333U 22045C 25298.45890519 .00001587 00000-0 11782-3 0 9999
2 52333 53.2181 96.1948 0001064 109.7455 250.3652 15.08831146195215
Epoch: Oct 25, 2025 • Age: 8 hours

Current Status

Altitude 543.9 km
Velocity 7.59 km/s
Sub-Earth Point -13.67°S, 126.58°E
Launch Date Apr 29, 2022
Age 3.4 years
Type internet

Technical Details

Classification Payload
Mass 297.00 kg
Dry Mass 275.00 kg
Total Mass 297.00 kg
Length 0.20 m
Diameter 2.80 m
Span 9.00 m
Shape Box + pan
Manufacturer SPXS
Bus Type Starlink
Phase Status In Orbit
Owner/State SPXS/US

Large Constellations

Loading constellations...